Date String (YYYY-MM-DD hh:mm:ss) UTC,Instrument flags,absolute air pressure of the measurement (hPa),sample flow rate (lpm),inlet stack bypass flow (lpm),air temperature of the measurement (°C),ambient temperature measured by the external sensor (°C),aerosol sample conditioner tube jacket temperature (°C),OPC LED temperature (°C),internal box temperature (°C),relative humidity of the measurement (%),span deviation,mass concentration of particles derived from Lorenz-Mie calculation of OPC scattering (μg/m³),mass concentration of particles derived from Lorenz-Mie calculation of OPC scattering (μg/m³),mass concentration of particles derived from Lorenz-Mie calculation of OPC scattering (μg/m³)
DateTimeUTC,F1_M11,P_M11,Q1_M11,Q2_M11,T1_M11,T2_M11,T3_M11,T4_M11,T5_M11,U1_M11,ZSPAN_M11,X0_M11,X2_M11,X1_M11
2024-06-18 16:00:00,SystemResetWarning,0824.9,5.00,000.00,027.6,026.7,000.0,036.1,029.5,017.4,0000.0,0031.92,0005.31,0002.45
2024-06-18 16:01:00,SystemResetWarning,0824.9,4.98,000.00,027.6,026.8,000.0,036.1,029.5,016.8,0000.0,0029.75,0005.32,0002.45
2024-06-18 16:02:00,SystemResetWarning,0824.9,4.99,000.00,027.6,026.8,000.0,036.1,029.5,017.3,0000.0,0030.34,0005.40,0002.46
2024-06-18 16:03:00,SystemResetWarning,0824.9,5.01,000.00,027.6,026.8,000.0,036.1,029.5,017.3,0000.0,0032.03,0005.46,0002.47
2024-06-18 16:04:00,SystemResetWarning,0824.9,5.02,000.00,027.6,026.8,000.0,036.1,029.5,017.6,0000.0,0032.02,0005.45,0002.47
2024-06-18 16:05:00,SystemResetWarning,0824.9,4.99,000.00,027.6,026.8,000.0,036.1,029.5,017.3,0000.0,0033.34,0005.52,0002.48
2024-06-18 16:06:00,SystemResetWarning,0824.9,5.00,000.00,027.6,026.8,000.0,036.1,029.5,017.6,0000.0,0033.38,0005.53,0002.49
2024-06-18 16:07:00,SystemResetWarning,0825.0,5.00,000.00,027.6,026.8,000.0,036.1,029.5,017.9,0000.0,0033.43,0005.53,0002.51
2024-06-18 16:08:00,SystemResetWarning,0824.9,5.00,000.00,027.6,026.8,000.0,036.1,029.5,017.8,0000.0,0034.39,0005.59,0002.53
2024-06-18 16:09:00,SystemResetWarning,0824.9,5.00,000.00,027.6,026.8,000.0,036.1,029.5,018.0,0000.0,0033.54,0005.64,0002.53
2024-06-18 16:10:00,SystemResetWarning,0825.0,5.00,000.00,027.6,026.8,000.0,036.1,029.5,017.8,0000.0,0033.91,0005.74,0002.55
2024-06-18 16:11:00,SystemResetWarning,0825.0,4.99,000.00,027.6,026.8,000.0,036.2,029.5,017.4,0000.0,0034.33,0005.87,0002.59
2024-06-18 16:12:00,SystemResetWarning,0824.9,5.00,000.00,027.6,026.8,000.0,036.2,029.5,017.5,0000.0,0036.95,0005.92,0002.60
2024-06-18 16:13:00,SystemResetWarning,0824.9,5.01,000.00,027.6,026.8,000.0,036.2,029.5,017.2,0000.0,0035.96,0005.86,0002.59
2024-06-18 16:14:00,SystemResetWarning,0824.9,5.01,000.00,027.6,026.8,000.0,036.2,029.5,017.6,0000.0,0034.66,0005.79,0002.60
2024-06-18 16:15:00,SystemResetWarning,0825.0,5.00,000.00,027.6,026.8,000.0,036.2,029.5,017.6,0000.0,0034.40,0005.87,0002.62
2024-06-18 16:16:00,SystemResetWarning,0825.0,5.00,000.00,027.6,026.7,000.0,036.2,029.5,017.6,0000.0,0034.39,0005.86,0002.63
2024-06-18 16:17:00,SystemResetWarning,0825.0,5.00,000.00,027.6,026.7,000.0,036.2,029.5,017.5,0000.0,0034.74,0005.89,0002.61
2024-06-18 16:18:00,SystemResetWarning,0825.0,5.00,000.00,027.6,026.8,000.0,036.2,029.5,017.9,0000.0,0035.57,0005.88,0002.61
2024-06-18 16:19:00,SystemResetWarning,0825.1,5.00,000.00,027.6,026.7,000.0,036.2,029.5,017.8,0000.0,0036.56,0005.90,0002.61
2024-06-18 16:20:00,SystemResetWarning,0825.1,5.00,000.00,027.6,026.7,000.0,036.2,029.5,018.5,0000.0,0041.32,0006.08,0002.65
2024-06-18 16:21:00,SystemResetWarning,0825.1,5.00,000.00,027.6,026.7,000.0,036.2,029.5,018.6,0000.0,0044.80,0006.15,0002.67
2024-06-18 16:22:00,SystemResetWarning,0825.1,5.00,000.00,027.6,026.8,000.0,036.2,029.5,018.2,0000.0,0043.72,0005.98,0002.66
2024-06-18 16:23:00,SystemResetWarning,0825.1,5.01,000.00,027.6,026.8,000.0,036.2,029.5,018.4,0000.0,0043.22,0005.95,0002.66
2024-06-18 16:24:00,SystemResetWarning,0825.2,5.00,000.00,027.6,026.8,000.0,036.2,029.5,018.1,0000.0,0043.92,0006.00,0002.68
2024-06-18 16:25:00,SystemResetWarning,0825.1,5.00,000.00,027.6,026.8,000.0,036.2,029.5,018.0,0000.0,0044.48,0006.11,0002.68
2024-06-18 16:26:00,SystemResetWarning,0825.1,5.00,000.00,027.6,026.8,000.0,036.2,029.5,018.3,0000.0,0043.21,0006.03,0002.67
2024-06-18 16:27:00,SystemResetWarning,0825.1,5.00,000.00,027.6,026.8,000.0,036.2,029.5,018.7,0000.0,0042.07,0006.00,0002.66
2024-06-18 16:28:00,SystemResetWarning,0825.1,5.00,000.00,027.6,026.8,000.0,036.2,029.5,018.9,0000.0,0042.03,0006.02,0002.65
2024-06-18 16:29:00,SystemResetWarning,0825.2,4.99,000.00,027.6,026.8,000.0,036.2,029.5,018.9,0000.0,0040.49,0006.05,0002.66
2024-06-18 16:30:00,SystemResetWarning,0825.3,5.00,000.00,027.6,026.8,000.0,036.2,029.5,018.0,0000.0,0038.33,0006.07,0002.66
2024-06-18 16:31:00,SystemResetWarning,0825.3,4.99,000.00,027.6,026.8,000.0,036.2,029.5,018.1,0000.0,0035.23,0005.97,0002.64
2024-06-18 16:32:00,SystemResetWarning,0825.3,5.00,000.00,027.6,026.8,000.0,036.2,029.6,017.8,0000.0,0033.29,0005.84,0002.62
2024-06-18 16:33:00,SystemResetWarning,0825.3,5.00,000.00,027.7,026.8,000.0,036.2,029.5,017.7,0000.0,0033.81,0005.85,0002.64
2024-06-18 16:34:00,SystemResetWarning,0825.4,5.00,000.00,027.7,026.8,000.0,036.2,029.5,018.1,0000.0,0032.36,0005.78,0002.64
2024-06-18 16:35:00,SystemResetWarning,0825.5,5.00,000.00,027.7,026.9,000.0,036.2,029.6,017.9,0000.0,0031.92,0005.69,0002.63
2024-06-18 16:36:00,SystemResetWarning,0825.5,5.00,000.00,027.7,026.9,000.0,036.2,029.6,017.9,0000.0,0032.58,0005.64,0002.62
2024-06-18 16:37:00,SystemResetWarning,0825.6,5.01,000.00,027.7,026.9,000.0,036.2,029.6,017.9,0000.0,0033.97,0005.62,0002.63
2024-06-18 16:38:00,SystemResetWarning,0825.6,5.01,000.00,027.7,026.9,000.0,036.2,029.6,018.0,0000.0,0034.40,0005.67,0002.63
2024-06-18 16:39:00,SystemResetWarning,0825.6,5.00,000.00,027.7,026.9,000.0,036.3,029.6,018.1,0000.0,0036.12,0005.68,0002.65
2024-06-18 16:40:00,SystemResetWarning,0825.5,5.00,000.00,027.7,026.9,000.0,036.3,029.6,017.9,0000.0,0037.13,0005.66,0002.66
2024-06-18 16:41:00,SystemResetWarning,0825.6,5.00,000.00,027.7,026.9,000.0,036.3,029.6,017.9,0000.0,0038.51,0005.72,0002.66
2024-06-18 16:42:00,SystemResetWarning,0825.6,5.00,000.00,027.7,026.9,000.0,036.3,029.6,018.2,0000.0,0039.47,0005.68,0002.66
2024-06-18 16:43:00,SystemResetWarning,0825.6,5.00,000.00,027.7,026.9,000.0,036.3,029.6,018.4,0000.0,0038.93,0005.72,0002.67
2024-06-18 16:44:00,SystemResetWarning,0825.6,4.99,000.00,027.7,027.0,000.0,036.3,029.7,017.8,0000.0,0047.02,0006.16,0002.67
2024-06-18 16:45:00,SystemResetWarning,0825.6,5.00,000.00,027.7,027.0,000.0,036.3,029.7,017.8,0000.0,0047.80,0006.31,0002.68
2024-06-18 16:46:00,SystemResetWarning,0825.6,4.99,000.00,027.8,027.0,000.0,036.3,029.7,017.8,0000.0,0048.14,0006.37,0002.71
2024-06-18 16:47:00,SystemResetWarning,0825.7,5.00,000.00,027.8,027.0,000.0,036.3,029.7,017.7,0000.0,0046.85,0006.29,0002.71
2024-06-18 16:48:00,SystemResetWarning,0825.7,5.00,000.00,027.8,027.0,000.0,036.3,029.7,017.6,0000.0,0045.28,0006.24,0002.71
2024-06-18 16:49:00,SystemResetWarning,0825.7,5.00,000.00,027.8,027.0,000.0,036.3,029.6,017.5,0000.0,0043.89,0006.13,0002.72
2024-06-18 16:50:00,SystemResetWarning,0825.7,5.00,000.00,027.8,027.0,000.0,036.3,029.7,017.7,0000.0,0042.35,0006.01,0002.71
2024-06-18 16:51:00,SystemResetWarning,0825.8,5.00,000.00,027.8,027.0,000.0,036.3,029.6,017.5,0000.0,0041.89,0005.99,0002.71
2024-06-18 16:52:00,SystemResetWarning,0825.8,5.00,000.00,027.8,027.0,000.0,036.3,029.6,017.4,0000.0,0041.56,0005.92,0002.69
2024-06-18 16:53:00,SystemResetWarning,0825.8,5.00,000.00,027.8,027.0,000.0,036.3,029.7,017.1,0000.0,0041.26,0005.95,0002.69
2024-06-18 16:54:00,SystemResetWarning,0825.8,5.00,000.00,027.8,026.9,000.0,036.3,029.7,017.0,0000.0,0039.45,0005.87,0002.68
2024-06-18 16:55:00,SystemResetWarning,0825.8,5.00,000.00,027.8,026.9,000.0,036.3,029.6,017.4,0000.0,0030.89,0005.45,0002.64
2024-06-18 16:56:00,SystemResetWarning,0825.7,5.00,000.00,027.8,026.9,000.0,036.3,029.6,017.3,0000.0,0028.04,0005.30,0002.64
2024-06-18 16:57:00,SystemResetWarning,0825.7,5.00,000.00,027.8,026.9,000.0,036.3,029.7,017.6,0000.0,0027.44,0005.19,0002.61
2024-06-18 16:58:00,SystemResetWarning,0825.7,5.00,000.00,027.8,026.9,000.0,036.3,029.7,017.3,0000.0,0026.61,0005.20,0002.62
2024-06-18 16:59:00,SystemResetWarning,0825.7,5.00,000.00,027.8,026.9,000.0,036.3,029.7,017.0,0000.0,0026.63,0005.19,0002.61
